TIANZHOU-3 (49222 NORAD) Tracking and Keplerian Element Data

This shows tracking and keplerian element data for the satellite.

Feedback or suggestion? Click here.




ElementValue
Catalog49222
NameTIANZHOU-3
Epoch Orbit2632
Epoch Day287.26541708
Epoch Year2021
RAAN276.8092
Inclination41.47
Eccentricity0.0001685
Argument of Perigee231.5637
Mean Anonmoly166.9131
Mean Motion15.61372078
Decay Rate3.319E-05
L11 49222U 21085A 21287.26541708 .00003319 00000-0 41745-4 0 9999
L22 49222 41.4700 276.8092 0001685 231.5637 166.9131 15.61372078 26328

Live tracking and technical data element details for TIANZHOU-3 (NORAD 49222). TIANZHOU-3 can be tracked NOW for your location showing map with azimuth and elevation plus other details from your city location.

Track the satellite on the map from your city or location and see movement details for azimuth, elevation, latitude, longitude, range, height, and movement on the map or in text.







IsCatalogInMostPopularTable: catalog: 49222, numindb: 8
Update: records affected: 1



GetName: 49222 TIANZHOU-3

Hit Count: updated at: Tue, 19 Oct 2021 08:17:35 GMT